Online Auction of Sound, Stage, and Lighting Equipment for Sale in Orange County, CA

Lot #0104: Show Solutions 10' x 1' Aluminum Stage Truss

Bidding is closed.
High Bid:$405.00
NA
Bidding Ended: Thu, Jan 10  10:09:46 am PT
High Bidder: Jlortz2k8
Bid Increment: $10.00
Starting Bid: $5.00
Item Location: Fullerton, CA 92833
Item has been viewed 454 times.

Show Solutions 10' x 1' Aluminum Stage Truss

NOTE: Photos are representative of item. 

Bid Date Bid Amount Bidder
Jan 10, 2019 - 10:07:46 AM $405.00 iJlortz2k8
Jan 10, 2019 - 10:07:46 AM $400.00 ipixelwerks
Jan 10, 2019 - 10:07:43 AM $395.00 ipixelwerks
Jan 10, 2019 - 10:07:43 AM $385.00 iJlortz2k8
Jan 10, 2019 - 10:05:49 AM $375.00 ipixelwerks
Jan 10, 2019 - 10:05:49 AM $365.00 iJlortz2k8
Jan 10, 2019 - 10:05:44 AM $355.00 ipixelwerks
Jan 10, 2019 - 10:05:44 AM $345.00 iJlortz2k8
Jan 10, 2019 - 10:05:36 AM $335.00 ipixelwerks
Jan 10, 2019 - 10:05:36 AM $325.00 iJlortz2k8
Jan 10, 2019 - 10:04:29 AM $315.00 ipixelwerks
Jan 10, 2019 - 10:04:29 AM $305.00 ilighttek
Jan 10, 2019 - 10:02:59 AM $261.25 ilighttek
Jan 10, 2019 - 10:02:59 AM $251.25 ilakinetics
Jan 10, 2019 - 10:01:03 AM $210.00 ilighttek
Jan 10, 2019 - 10:01:03 AM $200.00 iDano1954
Jan 10, 2019 - 7:47:52 AM $195.00 iDano1954
Jan 10, 2019 - 7:47:42 AM $185.00 ilighttek
Jan 10, 2019 - 7:47:43 AM $185.00 iDano1954
Jan 10, 2019 - 12:44:54 AM $145.00 ilighttek
Jan 10, 2019 - 12:44:54 AM $135.00 iHALO479
Jan 9, 2019 - 10:39:42 AM $125.00 ilighttek
Jan 9, 2019 - 10:39:42 AM $115.00 idjcraze88
Jan 8, 2019 - 10:58:01 PM $105.00 ilighttek
Jan 8, 2019 - 10:58:01 PM $100.00 ipixelwerks
Jan 8, 2019 - 1:21:51 PM $56.00 ipixelwerks
Jan 8, 2019 - 1:21:51 PM $51.00 iDano1954
Jan 8, 2019 - 12:35:58 PM $15.00 ipixelwerks
Jan 8, 2019 - 12:35:58 PM $10.00 iKurt Musser
Jan 8, 2019 - 10:12:44 AM $5.00 ipixelwerks
Click on any picture to see a larger image.